Regional Weather Roundup
Issued by NWS

Home | Current Version | Previous Version | Text Only | Print | Product List | Glossary Off
Versions: 1 2 3 4 5 6 7 8 9 10 11 12 13 14 15 16 17 18 19 20 21 22 23 24 25 26 27 28 29 30 31 32 33 34 35 36 37 38 39 40 41 42 43 44 45 46 47 48 49 50

499
ASUS43 KDMX 111001
RWRIA

WEATHER ROUNDUP FOR IOWA
NATIONAL WEATHER SERVICE DES MOINES IA
400 AM CST SUN DEC 11 2016

NOTE: "FAIR" INDICATES FEW OR NO CLOUDS BELOW 12,000 FEET WITH NO
SIGNIFICANT WEATHER AND/OR OBSTRUCTIONS TO VISIBILITY.

* - THESE STATIONS ARE NOT NWS STATIONS...THUS NOT UNDER NWS
QUALITY CONTROL.  THEY ALSO DO NOT REPORT WEATHER SUCH
AS PRECIPITATION OR FOG.

IAZ001>003-012>014-020>022-031>034-043>046-111100-
   NORTHWEST IOWA

CITY           SKY/WX    TMP DP  RH WIND       PRES   REMARKS
CARROLL *      CLOUDY    25  23  93 SE14      29.81F WCI  13
CHEROKEE *     CLOUDY    24  22  91 SE9       29.82S WCI  14
DENISON *      CLOUDY    25  21  86 VRB5      29.80R WCI  19
LE MARS *      CLOUDY    25  21  86 SE8       29.82R WCI  16
ORANGE CITY *  CLOUDY    23  21  93 SE6       29.79F WCI  16
SHELDON *      CLOUDY    23  23 100 SE14      29.80R WCI  11
SIOUX CITY     CLOUDY    27  21  78 E8        29.79F WCI  19
SPENCER        CLOUDY    22  20  92 SE7G18    29.83F WCI  13
STORM LAKE *   CLOUDY    23  21  93 SE15      29.81R WCI  10
$$

IAZ055>058-069>071-079>083-090>094-111100-
   SOUTHWEST IOWA

CITY           SKY/WX    TMP DP  RH WIND       PRES   REMARKS
ATLANTIC *     CLOUDY    32  23  69 SE6       29.80F WCI  26
AUDUBON *      CLOUDY    27  21  80 SE8       29.81S WCI  18
CLARINDA *     CLOUDY    36  23  60 S7        29.82F WCI  30
COUNCIL BLFS * CLOUDY    32  23  69 SE8       29.78S WCI  25
CRESTON *      CLOUDY    32  21  64 SE12      29.83F WCI  23
HARLAN  *      CLOUDY    30  23  74 SE7       29.83S WCI  23
LAMONI         CLOUDY    34  19  54 SE12      29.84F WCI  25
RED OAK *      CLOUDY    36  23  60 SE12      29.79F WCI  27
SHENANDOAH *   CLOUDY    36  23  60 SE12      29.79F WCI  27
$$

IAZ047>049-059>061-072>074-084-111100-
   CENTRAL IOWA

CITY           SKY/WX    TMP DP  RH WIND       PRES   REMARKS
AMES           CLOUDY    26  22  84 SE10      29.87F WCI  16
ANKENY *       CLOUDY    27  23  86 SE7       29.88F WCI  19
BOONE *        CLOUDY    25  21  86 SE16      29.83F WCI  12
CHARITON *     CLOUDY    32  21  64 SE8       29.87F WCI  25
DES MOINES     CLOUDY    29  21  72 E10       29.87F WCI  20
GRINNELL*      CLOUDY    26  23  86 E12G17    29.93F WCI  16
KNOXVILLE *    CLOUDY    30  21  69 E7        29.88F WCI  23
MARSHALLTOWN   CLOUDY    25  22  88 SE13      29.90F WCI  14
NEWTON *       CLOUDY    27  23  86 E13       29.89F WCI  16
PELLA *        CLOUDY    28  23  80 E7        29.92F WCI  21
PERRY *        CLOUDY    27  24  89 E14       29.84F WCI  16
$$

IAZ004>006-015-016-023>025-035-036-111100-
   NORTH CENTRAL IOWA

CITY           SKY/WX    TMP DP  RH WIND       PRES   REMARKS
ALGONA *       CLOUDY    23  21  93 SE18      29.83F WCI   9
CLARION *      CLOUDY    23  23 100 SE21      29.85F FOG     WCI   8
ESTHERVILLE    CLOUDY    20  19  96 SE14      29.84F WCI   7
FORT DODGE *   CLOUDY    23  18  80 E14       29.84F WCI  11
MASON CITY     CLOUDY    21  18  88 SE15      29.92F WCI   8
WEBSTER CITY * CLOUDY    25  23  93 SE16      29.83F WCI  12
IOWA FALLS *   CLOUDY    24  22  90 E15       29.90F WCI  12
$$

IAZ007>011-017>019-026>030-037>042-050>054-066-111100-
   NORTHEAST IOWA

CITY           SKY/WX    TMP DP  RH WIND       PRES   REMARKS
CEDAR RAPIDS   CLOUDY    24  23  96 E13       29.96F WCI  12
CHARLES CITY * LGT SNOW  23  21  93 SE14      29.94F WCI  11
CLINTON *      CLOUDY    26  23  88 SE17      30.03F WCI  13
DECORAH *      LGT SNOW  21  19  93 SE10G20   29.95F WCI  10
DUBUQUE        LGT SNOW  23  21  92 SE16      30.00F FOG     WCI  10
MONTICELLO *   CLOUDY    25  21  86 SE13      29.99F WCI  13
OELWEIN *      CLOUDY    23  21  93 SE15      29.95F WCI  10
WATERLOO       CLOUDY    23  20  88 SE12      29.95F WCI  12
$$

IAZ064-065-067-068-078-111100-
   EAST CENTRAL IOWA

CITY           SKY/WX    TMP DP  RH WIND       PRES   REMARKS
DAVENPORT      CLOUDY    26  22  84 E15       30.02F WCI  14
IOWA CITY      CLOUDY    27  22  81 E5        30.00F WCI  22
MUSCATINE *    CLOUDY    30  23  74 SE8       30.00F WCI  23
QUAD CITIES    CLOUDY    28  22  78 E9        30.02F WCI  19
$$

IAZ062-063-075>077-085>089-095>099-111100-
   SOUTHEAST IOWA

CITY           SKY/WX    TMP DP  RH WIND       PRES   REMARKS
BURLINGTON     CLOUDY    33  20  58 S12       29.97F WCI  24
FAIRFIELD *    CLOUDY    32  19  59 SE9G16    29.93F WCI  24
FORT MADISON * CLOUDY    34  19  55 SE10      29.97F WCI  26
KEOKUK *       CLOUDY    36  18  48 SE8       29.96F WCI  29
OSKALOOSA *    CLOUDY    29  24  79 E8        29.93F WCI  21
CENTERVILLE *  CLOUDY    32  19  59 SE10      29.90F WCI  24
OTTUMWA        CLOUDY    32  19  58 SE7       29.92F WCI  26
WASHINGTON *   CLOUDY    28  25  86 SE9       29.96F WCI  20
$$

ABBREVIATIONS USED IN REMARKS
   TC - TEMPERATURES IN CELSIUS
  WCI - WIND CHILL INDEX
   HX - HEAT INDEX
  VSB - VISIBILITY
$$





USA.gov is the U.S. government's official web portal to all federal, state and local government web resources and services.